sat.trackr.live / text

‹ back to catalog

STARLINK-36829

NORAD 67957 · 2026-037AB

PAYLOAD ACTIVE UNKNOWN

§ Identity

Operator
Country
US
Launch date
2026-02-24
Launch site
AFETR
Launch vehicle
Mass (kg)
RCS (m²)

Purposes: comms

External: N2YO · Heavens-Above · Gunter

§ Orbital elements

Epoch: 2026-05-25T05:09:26.718048Z

Period
94.27 min
Inclination
43.0033°
Eccentricity
0.0000424
Mean motion
15.27594092 rev/d
Perigee alt
482.7 km
Apogee alt
483.3 km
Semi-major
6,861.1 km
B*
6.0336e-4
RAAN
118.5988°
Arg perigee
267.8253°
Mean anomaly
92.2550°
Rev number
1,503

§ Raw data

STARLINK-368291 67957U 26037AB  26145.21489257  .00016385  00000+0  60336-3 0  99912 67957  43.0033 118.5988 0000424 267.8253  92.2550 15.27594092 15038

JSON: /api/v1/satellites/67957 · /tle

For live sub-satellite position, see the globe view (requires WebGL).

§ Visibility from observer

Set your observer location to see the next 7 days of passes ≥ 10°. The values pass through the URL so the page stays shareable.

No JS? Fill the form by hand. The geolocation button needs JavaScript.